Regional Weather Roundup
Issued by NWS San Diego, CA

Home | Current Version | Previous Version | Text Only | Print | Product List | Glossary On
Versions: 1 2 3 4 5 6 7 8 9 10 11 12 13 14 15 16 17 18 19 20 21 22 23 24 25 26 27 28 29 30 31 32 33 34 35 36 37 38 39 40 41 42 43 44 45 46 47 48 49 50
000
ASUS46 KSGX 311110
RWRSGX

SAN DIEGO HOURLY WEATHER ROUNDUP
NATIONAL WEATHER SERVICE SAN DIEGO CA
400 AM PDT SUN AUG 31 2014

NOTE: "FAIR" INDICATES FEW OR NO CLOUDS BELOW 12,000 FEET WITH NO
SIGNIFICANT WEATHER AND/OR OBSTRUCTIONS TO VISIBILITY.

CAZ042-043-060-061-PZZ750-775-311200-

GREATER SAN DIEGO AREA

CITY           SKY/WX    TMP DP  RH WIND       PRES   REMARKS
LINDBERGH FLD  CLOUDY    68  65  90 S5        29.82S
POINT LOMA       N/A     67  64  91 S9          N/A
NATIONAL CITY    N/A     68  66  92 S1        29.81S
CHULA VISTA      N/A     67  66  94 CALM      29.74S
IMPERIAL BEACH CLOUDY    68  65  90 SE5       29.80F
BROWN FIELD    CLOUDY    66  65  96 NW3       29.81S FOG
MIRAMAR MCAS   CLOUDY    67  63  87 S6        29.81S
MONTGOMERY FLD CLOUDY    67  64  90 S6        29.81S FOG

$$

NORTH SAN DIEGO COUNTY

CITY           SKY/WX    TMP DP  RH WIND       PRES   REMARKS
CAMP PENDLETON CLOUDY    68  63  84 NE5       29.80S HAZE
OCEANSIDE AP   CLOUDY    71  65  81 SE5       29.79S
OCEANSIDE HBR    N/A     70  66  87 S3        29.82S
VISTA            N/A     73  65  77 CALM      29.78S
CARLSBAD       CLOUDY    68  65  90 SE5       29.79F FOG
DEL MAR          N/A     67  66  95 CALM      29.82F
LA JOLLA SCRIP   N/A     67  65  94 SE6       29.77S
FALLBROOK        N/A     65  65 100 CALM      29.80S
ESCONDIDO        N/A     67  63  85 CALM      29.81S
SAN MARCOS       N/A     65  61  86 CALM      29.78R
POWAY            N/A     63  60  88 CALM      29.81S

$$

EAST SAN DIEGO COUNTY

CITY           SKY/WX    TMP DP  RH WIND       PRES   REMARKS
RAMONA         CLEAR     59  49  69 CALM      29.83S
SANTEE LAKES     N/A     67  64  89 CALM      29.81S
LA MESA          N/A     66  65  96 CALM      29.74S
JAMUL            N/A     63  62  96 W2        29.78S
DESCANSO N       N/A     66  25  21 E1        29.66S
MT. LAGUNA OBS   N/A     71  24  17 W3        29.69S
CAMPO            N/A     57  39  51 NE6       29.87F

$$

ORANGE COUNTY AND THE LOS ANGELES BASIN

CITY           SKY/WX    TMP DP  RH WIND       PRES   REMARKS
JOHN WAYNE AP  PTCLDY    71  63  75 E3        29.79S
LAGUNA BEACH     N/A     70  67  90 CALM      29.75R
LAKE FOREST FR   N/A     66  56  69 CALM      29.68S
SANTA ANA        N/A     68  65  90 CALM      29.75R
HUNTINGTON BCH   N/A     68  67  94 CALM      29.81R
LOS ALAMITOS   FAIR      69  67  93 S3        29.79S
FULLERTON      MOCLDY    70  66  87 CALM      29.78S
LONG BEACH     CLOUDY    70  67  90 VRB3      29.79S
L.A. AP        PTCLDY    69  65  86 E5        29.79S
L.A. DOWNTOWN  CLEAR     70  65  84 CALM      29.79R

$$

THE INLAND EMPIRE

CITY           SKY/WX    TMP DP  RH WIND       PRES   REMARKS
CORONA         CLEAR     68  64  86 W3        29.80S
CHINO          CLEAR     66  59  78 CALM      29.81S
ONTARIO        PTCLDY    70  61  73 W5        29.81R
RIVERSIDE AP   CLEAR     71  55  56 CALM      29.81R
RIV CYN CREST    N/A     71  63  74 CALM      29.79R
MORENO VALLEY    N/A     71  55  56 CALM      29.02R
MARCH ARB      CLEAR     66  49  55 CALM      29.83S
HORSETHIEF CYN   N/A     69  46  43 CALM      29.80R
PERRIS           N/A     71  51  49 CALM      29.80R
MENIFEE          N/A     70  57  63 CALM      29.87S
HEMET EAST       N/A     72  32  22 CALM      29.77R
FRENCH VALLEY  FAIR      66  55  68 CALM      29.83R
TEMECULA         N/A     68  61  78 S1        29.78S

$$

SAN BERNARDINO AND RIVERSIDE COUNTY MOUNTAINS

CITY           SKY/WX    TMP DP  RH WIND       PRES   REMARKS
BIG BEAR AP    PTCLDY    46  28  49 CALM      30.18S
ANGELUS OAKS     N/A     64  34  32 CALM      29.66S
PINE COVE        N/A     68  29  23 N3        29.62F

$$

SOUTHERN DESERT INCLUDING THE COACHELLA VALLEY

CITY           SKY/WX    TMP DP  RH WIND       PRES   REMARKS
PALM SPRINGS   CLEAR     81  54  39 S3        29.70R
THOUSAND PALMS   N/A     87  46  23 NW1       29.64R
PALM DESERT      N/A     79  60  51 CALM        N/A
THERMAL        CLEAR     77  53  43 SW5       29.64S
BLYTHE         CLEAR     88  50  27 S9        29.68S
IMPERIAL AP    CLEAR     82  64  54 SE7       29.64S
YUMA AZ        CLEAR     89  49  25 CALM      29.68R

$$

UPPER DESERT

CITY           SKY/WX    TMP DP  RH WIND       PRES   REMARKS
VICTORVILLE AP PTCLDY    75  32  20 W10       29.90S
HESPERIA         N/A     70  39  31 CALM      29.83F
APPLE VALLEY     N/A     74  34  23 CALM      29.97S
PALMDALE       PTCLDY    77  37  23 W9        29.90S
LANCASTER      PTCLDY    76  40  27 W17       29.87S
EDWARDS AFB    MOCLDY    74  37  25 SW12      29.84R
DAGGETT        PTCLDY    85  31  14 W20G26    29.79R
29 PALMS N     PTCLDY    82  30  15 NW8       29.87S
NEEDLES        MOCLDY    93  41  16 CALM      29.70S

$$

REGIONAL REPORTS

CITY           SKY/WX    TMP DP  RH WIND       PRES   REMARKS
SANTA BARBARA  CLEAR     61  58  90 CALM      29.76R
SANDBERG       PTCLDY    71  35  26 N22G43    30.03R
MT. WILSON       N/A     72  25  17 NW14G23     N/A
LAS VEGAS NV   PTCLDY    85  32  15 S14       29.70R
PHOENIX AZ     CLEAR     87  51  28 SE5       29.76S
TIJUANA        FOG       66  63  88 CALM      29.83S VSB 1
ENSENADA NW      N/A     67  32  26 CALM      29.78S

$$

OFFSHORE ISLANDS

CITY           SKY/WX    TMP DP  RH WIND       PRES   REMARKS
CATALINA ARPT  CLEAR     75  48  38 CALM      29.84F
SAN NICOLAS IS CLEAR    N/A N/A N/A NW17      29.79R

$$

MARINE AND OFFSHORE BUOY REPORTS

STATION/POSITION SKY/WX   TEMP    WIND        PRES    SWELL
                          AIR SEA DIR/SP/G            HT/PER/DIR
                          (F)     (DEG/KT/KT) (MB)    (FT/S/D)
TANNER BANKS               69 69  330/ 14/ 17 1008.5F
S CLEMENTE BASIN           69 71  170/  8/ 10 1008.2F   3/230/15
SAN NICOLAS IS.               65                N/A     2/220/15
SO. S. ROSA ISLA           66 65  320/ 23/ 29 1007.5R   2/15
W. S. BARBARA CH           62 61  320/ 23/ 27 1008.0R   3/320/ 8
S. MONICA BASIN            70 71   80/  6/  6 1007.8F   3/250/ 7
S PEDRO CHANNEL               71                N/A     2/170/14
DANA POINT                    73                N/A     2/190/15
CMP PENDLETON NS              74                N/A     2/230/17
OCEANSIDE OFFSHR              74                N/A     2/220/15
TORREY PINES OTR              74                N/A     2/220/17
LA JOLLA 1                 68 66  160/  9/ 12 1009.1F
MISSION BAY BUOY              70                N/A     2/210/15
SAN DIEGO BAY                 75              1009.8R
POINT LOMA SOUTH              74                N/A     2/210/15

$$




USA.gov is the U.S. government's official web portal to all federal, state and local government web resources and services.